Freeport Weather Center

Moon Phase Calendar



Online Cameras

 


      

Current Conditions in Lisbon Falls
1/19/2022 4:52:22 AM

6°F
Feels Like -1
Clouds
Humidity
76%
Pressure
30.12"
Wind
3.2 mph (W)
Dew Point
0°F
UV Index
0/10 (Low)
Visibility
6 mi

Hourly Forecast

Date & Time Wed, Jan 19
4:00 AM
Wed, Jan 19
5:00 AM
Wed, Jan 19
6:00 AM
Wed, Jan 19
7:00 AM
Wed, Jan 19
8:00 AM
Wed, Jan 19
9:00 AM
Wed, Jan 19
10:00 AM
Wed, Jan 19
11:00 AM
Wed, Jan 19
12:00 PM
Wed, Jan 19
1:00 PM
Wed, Jan 19
2:00 PM
Wed, Jan 19
3:00 PM
Wed, Jan 19
4:00 PM
Wed, Jan 19
5:00 PM
Wed, Jan 19
6:00 PM
Wed, Jan 19
7:00 PM
Wed, Jan 19
8:00 PM
Wed, Jan 19
9:00 PM
Wed, Jan 19
10:00 PM
Wed, Jan 19
11:00 PM
Thu, Jan 20
12:00 AM
Thu, Jan 20
1:00 AM
Thu, Jan 20
2:00 AM
Thu, Jan 20
3:00 AM
Thu, Jan 20
4:00 AM
Thu, Jan 20
5:00 AM
Thu, Jan 20
6:00 AM
Thu, Jan 20
7:00 AM
Thu, Jan 20
8:00 AM
Thu, Jan 20
9:00 AM
Thu, Jan 20
10:00 AM
Thu, Jan 20
11:00 AM
Thu, Jan 20
12:00 PM
Thu, Jan 20
1:00 PM
Thu, Jan 20
2:00 PM
Thu, Jan 20
3:00 PM
Thu, Jan 20
4:00 PM
Thu, Jan 20
5:00 PM
Thu, Jan 20
6:00 PM
Thu, Jan 20
7:00 PM
Thu, Jan 20
8:00 PM
Thu, Jan 20
9:00 PM
Thu, Jan 20
10:00 PM
Thu, Jan 20
11:00 PM
Fri, Jan 21
12:00 AM
Fri, Jan 21
1:00 AM
Fri, Jan 21
2:00 AM
Fri, Jan 21
3:00 AM
Condition
Clouds

Clouds

Clouds

Clouds

Clouds

Clouds

Clouds

Clouds

Clouds

Clouds

Clouds

Clouds

Clouds

Clouds

Clouds

Clouds

Clouds

Clouds

Clouds

Clouds

Clouds

Clouds

Clouds

Clouds

Clouds

Clouds

Clouds

Snow

Snow

Snow

Clouds

Clouds

Clouds

Clouds

Clouds

Clouds

Clouds

Clouds

Clouds

Clouds

Clear

Clear

Clear

Clear

Clouds

Clouds

Clouds

Clouds
Temperature 6°F6°F7°F8°F10°F15°F22°F25°F29°F32°F35°F38°F37°F36°F36°F36°F36°F35°F36°F36°F36°F36°F36°F36°F36°F33°F31°F29°F27°F28°F27°F27°F27°F27°F27°F26°F23°F20°F17°F16°F15°F13°F12°F10°F8°F7°F6°F6°F
Feels Like -1°F-1°F7°F8°F2°F5°F12°F16°F19°F23°F27°F30°F30°F28°F28°F28°F27°F27°F27°F27°F27°F28°F28°F28°F28°F26°F26°F25°F23°F22°F19°F19°F18°F18°F17°F16°F12°F8°F5°F4°F3°F1°F-1°F-3°F-4°F-5°F-6°F-7°F
Cloudiness 42%46%48%53%78%89%100%100%100%100%100%99%95%96%97%98%100%100%100%100%100%100%100%100%100%100%100%100%100%100%100%100%100%100%97%82%65%55%46%39%7%7%8%9%12%13%25%28%
Visibility 6 mi6 mi6 mi6 mi6 mi6 mi6 mi6 mi6 mi6 mi6 mi6 mi6 mi6 mi6 mi6 mi6 mi6 mi6 mi6 mi6 mi6 mi6 mi6 mi6 mi6 mi6 mi5 mi6 mi6 mi6 mi6 mi6 mi6 mi6 mi6 mi6 mi6 mi6 mi6 mi6 mi6 mi6 mi6 mi6 mi6 mi6 mi6 mi
Precipitation 0%0%0%0%0%0%0%0%2%0%0%0%0%0%0%0%0%0%0%0%0%0%0%0%0%0%0%29%48%44%43%34%26%23%0%0%4%4%4%0%0%0%0%0%0%0%0%0%
Humidity 75%76%73%69%64%57%54%61%66%65%66%65%69%74%76%78%80%82%84%85%86%88%91%85%69%65%76%83%81%73%66%59%58%57%58%60%64%66%66%64%63%63%63%64%65%65%66%67%
Dew Point 0°F0°F0°F1°F2°F4°F7°F14°F19°F22°F25°F27°F28°F29°F30°F30°F30°F31°F31°F31°F32°F33°F33°F32°F26°F23°F24°F24°F22°F20°F17°F15°F14°F14°F14°F13°F12°F9°F7°F5°F4°F2°F0°F-1°F-3°F-4°F-4°F-5°F
Pressure 30.12"30.12"30.12"30.12"30.15"30.09"30.06"30"29.94"29.91"29.88"29.85"29.85"29.85"29.83"29.85"29.85"29.85"29.83"29.83"29.85"29.85"29.85"29.85"29.88"29.88"29.94"29.97"30"30"30.03"30.06"30.03"30.06"30.06"30.09"30.12"30.15"30.18"30.21"30.27"30.3"30.3"30.33"30.36"30.36"30.39"30.42"
Wind Speed 3.4 mph3.2 mph2.6 mph2.7 mph4.7 mph6.2 mph8.2 mph10.1 mph12.4 mph13.1 mph11.7 mph12.6 mph12 mph11.5 mph12.6 mph12.8 mph13 mph12.6 mph12.3 mph11.7 mph12 mph11.5 mph10.5 mph11.5 mph11.6 mph8.6 mph4 mph3.2 mph3.8 mph5.1 mph7.6 mph8.6 mph9 mph9.3 mph10.3 mph10 mph10.1 mph10.8 mph10.8 mph10.5 mph9.8 mph10.1 mph10.4 mph10.6 mph10.1 mph9.3 mph9 mph8.6 mph
Wind
Direction
277°
W
277°
W
268°
W
210°
SSW
205°
SSW
197°
SSW
195°
SSW
212°
SSW
214°
SW
220°
SW
217°
SW
218°
SW
222°
SW
219°
SW
218°
SW
218°
SW
220°
SW
217°
SW
217°
SW
217°
SW
219°
SW
220°
SW
227°
SW
236°
SW
246°
WSW
261°
W
278°
W
353°
N

N
353°
N
354°
N
337°
NNW
333°
NNW
332°
NNW
333°
NNW
340°
NNW
352°
N
354°
N
355°
N
355°
N
355°
N
353°
N
353°
N
352°
N
353°
N
356°
N
356°
N
352°
N

Daily Forecast

Date High Low Precip. Humidity
Today
Jan 19

Clouds
38 °F
6 °F
2%
61%
Thursday
Jan 20

Snow
36 °F
12 °F
48%
59%
Friday
Jan 21

Clear
14 °F
3 °F
0%
54%
Saturday
Jan 22

Clear
17 °F
4 °F
0%
56%
Sunday
Jan 23

Clouds
30 °F
15 °F
11%
77%
Monday
Jan 24

Clear
23 °F
12 °F
1%
46%
Tuesday
Jan 25

Snow
21 °F
12 °F
100%
68%
Wednesday
Jan 26

Clear
16 °F
7 °F
7%
52%
Thursday
Jan 27

Clouds
24 °F
4 °F
0%
68%
Friday
Jan 28

Snow
27 °F
18 °F
97%
90%
Saturday
Jan 29

Snow
30 °F
17 °F
100%
77%
Sunday
Jan 30

Clouds
30 °F
12 °F
0%
80%
Monday
Jan 31

Rain
39 °F
18 °F
71%
75%
Tuesday
Feb 1

Snow
35 °F
11 °F
72%
57%
Wednesday
Feb 2

Snow
31 °F
9 °F
34%
64%
Thursday
Feb 3

Snow
31 °F
8 °F
38%
58%

Temperature 8-14 Day Outlook



Precipitation 8-14 Day Outlook




Quick Links
Freeport News
Freeport Photos
Freeport Videos




About Us
Contact Us
Site Map
Search Site
Advertise With Us
   
Freeport.USCoast.info
THE FREEPORT WEBSITE

Copyright 2022, Coastal Town
Privacy    |    Legal